Back to catalog

STARLINK-31209

AliveCommunicationsVLEO
NORAD 58883·PAYLOAD·🇺🇸 United States

Launched Jan 29, 2024 from Vandenberg Space Force Base

Loading…

Next Passes (next 24 hours)

TLE

FreshSource: CelesTrak SupGP

Epoch: Sep 14, 2026, 14:17 UTC

1 58883C 24020H   26257.59562500  .00070427  00000+0  20788-2 0  2577
2 58883  53.1561 161.0518 0001356  94.6220  92.0201 15.34385534    11

Track STARLINK-31209 in real time with AllMySat

Download on the App Store